Location: Newark
(44.6768°N, 22.5302°E)
Time: 01:18:45
(UTC+00:00)

ZACube-1 - Pass Details

Date: 05 July 2022
Orbit: 582 x 661 km, 97.6° (Epoch: 08 August)

Event Time Altitude Azimuth Distance (km) Brightness Sun altitude
Rises 01:45:51 0° 21° (NNE) 2,968 ? -9.6°
Reaches altitude 10° 01:48:15 10° 31° (NNE) 2,063 ? -9.3°
Maximum altitude 01:52:20 33° 96° (E) 1,105 ? -8.8°
Drops below altitude 10° 01:56:25 10° 161° (SSE) 2,070 ? -8.3°
Sets 01:58:49 0° 171° (S) 2,980 ? -8.0°
